www.pogodaiklimat.ru

Архив погоды в Пограничном (Сахалинская область, Россия)

Время
(UTC), дата
15 18.05
18 18.05
21 18.05
00 19.05
03 19.05
06 19.05
09 19.05
12 19.05
15 19.05
18 19.05
21 19.05
00 20.05
03 20.05
06 20.05
09 20.05
12 20.05
15 20.05
18 20.05
21 20.05
00 21.05
03 21.05
06 21.05
09 21.05
12 21.05
15 21.05
18 21.05
21 21.05
00 22.05
03 22.05
06 22.05
09 22.05
12 22.05
15 22.05
18 22.05
21 22.05
00 23.05
03 23.05
06 23.05
09 23.05
12 23.05
15 23.05
18 23.05
21 23.05
00 24.05
03 24.05
06 24.05
09 24.05
12 24.05
15 24.05
18 24.05
21 24.05
00 25.05
03 25.05
06 25.05
09 25.05
12 25.05
Ветер
(напр.,м/с)
Видим. Явления Облачность Т
(С)
Тd
(С)
f
(%)
Тe
(С)
Тes
(С)
Комфортность P
(гПа)
Po
(гПа)
Тmin
(С)
Tmax
(С)
R
(мм)
R24
(мм)
S
(см)
З 1-1
{2}
20 км 10/8 600 м
[Cb cap Ac und]
+3.3 +1.8 90 +2 +2 1010.6 1009.6
ЮЗ 1-2
{3}
20 км 10/8 600 м
[Cb cap Ac und]
+4.5 +2.8 89 +3 +3 1010.4 1009.3
Ю 2-3
{3}
20 км в посл. час туман ясно +4.3 +2.8 90 +1 +4 1010.5 1009.4 +3.3
ЮВ 5-7
{8}
20 км {туман} 1/0
[Ci fib]
+6.9 +3.3 78 +3 +9 1009.8 1008.8
ЮВ 5-9
{11}
20 км 10/0
[Ac lent Cs]
+4.9 +2.1 82 0 +5 1008.6 1007.5
ЮВ 3-6
{9}
10 км слаб. ливневой дождь 10/8 600 м
[Cb cap Ac und]
+3.6 +1.6 87 -0 0 1008.0 1007.0
В 2-2
{8}
20 км {ливн. дождь} 10/6 300 м
[Cb cap Ac und]
+4.4 +1.4 81 +2 +2 1006.9 1005.9 +9.7 0.0
ЮВ 2-3
{3}
20 км {ливн. дождь} 8/3
[Cb cap Ac cast Ci fib]
+3.4 +2.2 92 0 0 1007.0 1006.0
З 1-1
{4}
20 км 10/4 600 м
[Cb cap Ac cuf Ci]
+3.6 +2.2 91 +2 +2 1007.0 1006.0
В 2-5
{5}
20 км 10/5 600 м
[Cb cap Ac cuf Ci]
+2.9 +1.5 90 -0 -0 1007.7 1006.6
СВ 1-4
{5}
4000 м слаб. ливневой дождь 10/10 300 м
[Cb cap]
+2.4 +1.3 92 +1 +1 1009.7 1008.6 +2.3 2
С 2-5
{7}
4000 м ливневой дождь 10/10 300 м
[Cb cap]
+1.8 +0.8 93 -2 -2 1009.9 1008.8 +1.5
С 2-5
{6}
4000 м дымка {ливн. дождь} 10/8 300 м
[Cb cap Ac und]
+2.6 +1.1 90 -1 0 1010.7 1009.7
С 2-3
{5}
4000 м дымка {ливн. дождь} 10/10 300 м
[St]
+1.8 0.0 88 -2 -2 1011.5 1010.4
штиль 0
{4}
20 км 10/8 300 м
[Cb cap Ac und]
+1.7 -0.3 87 +1 +1 1011.8 1010.7 +3.1 5
штиль 0
{2}
4000 м дымка 10/10 300 м
[St]
+0.9 -0.2 92 -0 -0 1012.4 1011.3
Ю 1-2
{3}
200 м туман ?/? +0.9 +0.2 95 -1 -1 1012.5 1011.4
Ю 2-3
{4}
200 м туман ?/? +0.7 +0.1 96 -3 -3 1012.3 1011.2
Ю 3-5
{5}
500 м слаб. ливневой дождь {туман} туман 10/10 300 м
[Cb cap]
+0.8 +0.3 96 -4 -4 1012.1 1011.0 +0.7 2
ЮВ 4-6
{6}
1000 м слаб. ливневой дождь {туман} 10/10 300 м
[Cb cap]
+0.9 +0.4 96 -5 -5 1011.8 1010.7 +0.6
ЮВ 2-3
{6}
1000 м слаб. ливневой дождь 10/10 300 м
[Cb cap]
+1.8 +1.2 96 -2 -2 1011.2 1010.1
ЮВ 3-5
{6}
1000 м в посл. час ливневой дождь 10/10 300 м
[Cb cap]
+1.4 +0.7 95 -3 -3 1010.3 1009.2
В 1-1
{5}
1000 м дымка {ливн. дождь} 10/10 300 м
[Cb cap]
+1.4 +0.7 95 -1 -1 1009.6 1008.5 +2.3 6
ЮВ 1-1
{3}
50 м туман {ливн. дождь} ?/? +0.3 -0.3 96 -2 -2 1009.8 1008.7
З 1-2
{2}
200 м туман ?/? -0.3 -0.8 96 -3 -3 1008.7 1007.6
ЮВ 1-2
{3}
200 м туман ?/? +0.1 -0.4 96 -2 -2 1007.2 1006.1
ЮВ 2-3
{3}
4000 м дымка {туман} 8/6 300 м
[St Ci fib]
+1.3 +0.9 97 -2 -1 1006.9 1005.8 -0.5
ЮВ 5-8
{8}
4000 м дымка {туман} 10/0
[Cs]
+2.8 +1.8 93 -3 +3 1006.2 1005.1
ЮВ 4-8
{10}
20 км 10/0
[Cs]
+5.3 +2.4 82 +1 +10 опасность
простуды
1005.6 1004.5
С 1-3
{8}
4000 м дымка 10/5 600 м
[Cb cap Ac cast Cs]
+3.5 +1.6 87 +2 +5 1006.6 1005.5
С 1-4
{6}
20 км 10/6 600 м
[Cb cap Ac und]
+4.9 +2.0 81 +4 +4 1008.2 1007.1 +6.1
С 2-5
{7}
10 км слаб. ливневой дождь 10/10 300 м
[Cb cap]
+3.8 +2.4 91 +1 +1 1011.2 1010.1
С 1-2
{6}
2000 м ливневой дождь 10/10 300 м
[Cb cap]
+2.2 +1.2 93 0 0 1012.7 1011.6
СЗ 1-3
{3}
10 км слаб. ливневой дождь 10/10 300 м
[Cb cap]
+2.1 +1.2 94 0 0 1014.4 1013.3
С 1-3
{3}
4000 м дымка {ливн. дождь} 10/6 300 м
[Cb cap Ac und]
+2.4 +0.5 87 +1 +1 1015.3 1014.3 +2.0 13
СВ 1-4
{4}
20 км {ливн. дождь} 10/8 300 м
[Cb cap Ac und]
+3.4 +0.7 82 +2 +3 1016.1 1015.0
С 2-3
{5}
20 км 10/10 600 м
[Cb cap]
+1.6 -0.3 87 -2 -2 1017.3 1016.2
С 1-3
{3}
20 км {ливн. дождь} 10/8 300 м
[Cb cap Ac und]
+2.1 -0.3 84 0 +1 1016.9 1015.9
СВ 1-1
{3}
20 км 10/10 300 м
[Cb cap]
+1.2 -0.7 87 -1 -1 1016.7 1015.6 +3.7 0.0
Ю 1
{2}
20 км 10/6 600 м
[Cb cap Ac cuf Ci ing]
+1.0 -0.7 88 -1 -1 1017.0 1015.9
Ю 2-2
{2}
4000 м дымка 10/10 300 м
[Cb cap]
+1.4 -0.2 89 -2 -2 1015.3 1014.2
ЮВ 1-2
{3}
20 км 10/8 300 м
[Cb cap Ac und]
+2.0 +0.2 88 0 0 1014.5 1013.5
ЮВ 3-5
{5}
20 км 10/6 300 м
[Cb cap Ac As]
+2.5 +1.2 91 -2 -1 1014.6 1013.5 +1.0
ЮВ 6-9
{9}
20 км 10/4 600 м
[Sc diur, vesp Ac cast Cs]
+3.8 +1.6 86 -2 -0 1013.6 1012.5
ЮВ 7-13
{13}
4000 м дымка 10/3 600 м
[Sc diur, vesp Ac cast Cs]
+6.1 +3.6 84 +1 +3 1012.2 1011.1
ЮВ 5-10
{13}
20 км 8/4 600 м
[Sc diur, vesp Ac cast Cs]
+5.7 +2.3 79 +1 +3 1011.1 1010.1
ЮВ 4-7
{11}
20 км 10/1 600 м
[Sc diur, vesp Ac lent Ci]
+4.7 +1.7 81 +1 +1 1010.7 1009.7 +8.4
ЮЗ 3-5
{8}
20 км 10/6 600 м
[Cb cap Ac cuf Ci ing]
+9.6 +4.4 70 +7 +7 1012.6 1011.5
ЮВ 2-4
{6}
10 км слаб. ливневой дождь 10/8 300 м
[Cb cap Ac und]
+4.0 +2.5 90 +1 +1 1011.0 1009.9
СЗ 1-2
{4}
10 км {ливн. дождь} 10/8 300 м
[Cb cap Ac und]
+2.7 +1.8 94 +1 +1 1010.8 1009.8
штиль 0
{3}
10 км слаб. ливневой дождь 10/8 300 м
[Cb cap Ac und]
+4.9 +4.0 94 +4 +4 1011.5 1010.4 +2.5 8
С 2-5
{5}
200 м слаб. ливневой дождь {туман} туман ?/? +4.2 +3.4 95 +1 +1 1011.9 1010.9
С 1-3
{9}
4000 м в посл. час туман {ливн. дождь} 10/10 300 м
[Cb cap]
+2.4 +0.8 89 +1 +1 1012.1 1011.0
С 1-2
{4}
20 км {ливн. дождь, туман} 10/8 300 м
[Cb cap Ac und]
+2.9 +0.8 86 +1 +2 1012.3 1011.2
ЮВ 1-1
{2}
20 км 10/8 300 м
[Cb cap Ac und]
+3.1 +0.9 85 +2 +2 1011.9 1010.8 +5.1 2
штиль 0
{2}
4000 м дымка 3/0
[Ac trans Ci fib]
+0.5 -0.5 93 -1 -1 1011.6 1010.5
Местоположение метеостанции Пограничное (Сахалинская область, Россия): широта 50.40 долгота 143.70 высота над уровнем моря 8 м.
В архиве по умолчанию представлена погода в Пограничном за последнюю неделю. Архивные данные за месяц целиком и за предыдущие месяцы, начиная с января 2011 года, Вы можете получить, выбрав интересующий диапазон дат из раскрывающегося списка и нажав кнопку "Найти!".
*Определитесь, кто Вы:
Внимание! Время в таблицах - всемирное. Для получения местного времени необходимо прибавить поправку, которая равна 11 ч.
Смотрите также архив погоды в соседних городах и на ближайших метеорологических станциях:
Партнеры нашего сайта:      
Пояснения к столбцам:
  • Ветер - указаны скорость ветра в м/с - средняя за 10 мин, порывы в срок и между сроками (в фигурных скобках) и направление, откуда дует ветер: С - северный,
  • СВ - северо-восточный, В - восточный, ЮВ - юго-восточный, Ю - южный, ЮЗ - юго-западный, З - западный, СЗ - северо-западный.
  • Видимость - горизонтальная дальность видимости в метрах или километрах. При видимости от 1 до 10 км при отсутствии осадков обычно наблюдается дымка, при ухудшении видимости до 1 км и менее - туман. В сухую погоду видимость может ухудшаться дымом, пылью или мглою.
  • Явления - указаны атмосферные явления, наблюдавшиеся в срок или в последний час перед сроком; фигурными скобками обозначены явления, наблюдавшиеся между сроками (за 1-3 часа до срока); квадратными скобками обозначены град или гололедные отложения с указанием их диаметра в мм.
  • Облачность - указаны через наклонную черту общая и нижняя облачность в баллах и высота нижней границы облаков в метрах; квадратными скобками обозначены формы облаков: Ci - перистые, Cs - перисто-слоистые, Cc - перисто-кучевые, Ac - высококучевые, As - высокослоистые, Sc - слоисто-кучевые, Ns - слоисто-дождевые, Cu - кучевые, Cb - кучево-дождевые. Подробнее классификацию облаков см. в Атласе облаков (PDF).
  • T - Температура воздуха - температура, измеренная на высоте 2 м над землей.
  • Td - Температура точки росы - температура, при понижении до которой содержащийся в воздухе водяной пар достигнет насыщения.
  • f - Относительная влажность воздуха - влажноcть воздуха, измеренная на высоте 2 м над землей.
  • Te - Эффективная температура - температура, которую ощущает одетый по сезону человек в тени. Характеристика душности погоды. При расчете учитывается влияние влажности воздуха и скорости ветра на теплоощущения человека.
  • Tes - Эффективная температура на солнце - температура, которую ощущает человек, с поправкой на солнечный нагрев. Характеристика знойности погоды. Зависит от высоты солнца над горизонтом, облачности и скорости ветра. Ночью, в пасмурную погоду, а также при ветре 12 м/с и более поправка равна нулю.
  • P - Атмосферное давление - приведенное к уровню моря атмосферное давление.
  • Po - Атмосферное давление - измеренное на уровне метеостанции атмосферное давление.
  • Tmin - Минимальная температура - минимум температуры воздуха на высоте 2 м над землей.
  • Tmax - Максимальная температура - максимум температуры воздуха на высоте 2 м над землей.
  • R - Количество осадков - Количество выпавших осадков за период времени, мм. При наведении курсора мыши на число - период времени, за который выпало указанное количество осадков.
  • R24 - Количество осадков - Количество выпавших осадков за 24 часа, мм.
  • S - Снежный покров - Высота снежного покрова, см. При наведении курсора мыши на число - состояние снежного покрова и степень покрытия местности в баллах.